TimeEST,TemperatureF,Dew PointF,Humidity,Sea Level PressureIn,VisibilityMPH,Wind Direction,Wind SpeedMPH,Gust SpeedMPH,PrecipitationIn,Events,Conditions,WindDirDegrees,DateUTC
12:54 AM,46.0,42.1,86,30.22,9.0,WNW,6.9,-,0.01,Rain,Light Rain,290,2012-11-13 05:54:00
1:09 AM,44.6,42.8,93,30.22,10.0,WNW,5.8,-,0.00,Rain,Light Rain,290,2012-11-13 06:09:00
1:54 AM,44.1,39.9,85,30.24,9.0,WNW,16.1,23.0,0.03,Rain,Light Rain,290,2012-11-13 06:54:00
2:54 AM,41.0,37.0,86,30.27,6.0,West,10.4,19.6,0.03,Rain,Rain,270,2012-11-13 07:54:00
3:54 AM,39.0,36.0,89,30.27,8.0,West,8.1,-,0.07,Rain,Rain,280,2012-11-13 08:54:00
4:34 AM,37.4,35.6,93,30.30,2.5,West,5.8,-,0.10,Rain,Heavy Rain,270,2012-11-13 09:34:00
4:54 AM,36.0,34.0,93,30.31,9.0,Calm,Calm,-,0.17,Rain,Light Rain,0,2012-11-13 09:54:00
5:06 AM,35.6,35.6,100,30.28,10.0,Calm,Calm,-,0.00,,Overcast,0,2012-11-13 10:06:00
5:29 AM,35.6,35.6,100,30.29,10.0,West,3.5,-,0.00,,Overcast,270,2012-11-13 10:29:00
5:40 AM,37.4,35.6,93,30.31,10.0,WSW,6.9,-,N/A,,Overcast,250,2012-11-13 10:40:00
5:54 AM,37.0,35.1,93,30.34,10.0,West,6.9,-,0.00,,Overcast,260,2012-11-13 10:54:00
6:09 AM,37.4,35.6,93,30.33,10.0,West,9.2,-,N/A,,Scattered Clouds,260,2012-11-13 11:09:00
6:54 AM,37.0,34.0,89,30.35,10.0,West,8.1,-,N/A,,Clear,280,2012-11-13 11:54:00
7:54 AM,36.0,30.0,79,30.38,10.0,West,10.4,-,N/A,,Clear,270,2012-11-13 12:54:00
8:54 AM,39.0,28.9,67,30.38,10.0,West,10.4,-,N/A,,Clear,260,2012-11-13 13:54:00
9:54 AM,41.0,28.9,62,30.39,10.0,West,8.1,-,N/A,,Clear,270,2012-11-13 14:54:00
10:54 AM,43.0,28.9,58,30.39,10.0,West,10.4,-,N/A,,Scattered Clouds,260,2012-11-13 15:54:00
11:54 AM,44.1,26.1,49,30.38,10.0,NNW,9.2,-,N/A,,Scattered Clouds,330,2012-11-13 16:54:00
12:54 PM,46.0,26.1,46,30.37,10.0,WNW,12.7,-,N/A,,Mostly Cloudy,300,2012-11-13 17:54:00
1:54 PM,44.1,25.0,47,30.37,10.0,West,6.9,-,N/A,,Overcast,280,2012-11-13 18:54:00
2:54 PM,43.0,26.1,51,30.38,10.0,North,9.2,-,N/A,,Overcast,350,2012-11-13 19:54:00
3:54 PM,42.1,26.1,53,30.40,10.0,NNW,9.2,-,N/A,,Overcast,330,2012-11-13 20:54:00
4:54 PM,41.0,27.0,57,30.42,10.0,NW,5.8,-,N/A,,Overcast,310,2012-11-13 21:54:00
5:54 PM,39.9,26.1,58,30.45,10.0,NNW,5.8,-,N/A,,Overcast,330,2012-11-13 22:54:00
6:54 PM,39.0,25.0,57,30.46,10.0,NW,10.4,-,N/A,,Overcast,320,2012-11-13 23:54:00
7:54 PM,39.0,25.0,57,30.48,10.0,NNW,6.9,-,N/A,,Overcast,340,2012-11-14 00:54:00
8:54 PM,39.0,26.1,60,30.50,10.0,NNW,4.6,-,N/A,,Overcast,340,2012-11-14 01:54:00
9:54 PM,39.0,24.1,55,30.51,10.0,North,6.9,-,N/A,,Overcast,350,2012-11-14 02:54:00
10:54 PM,37.9,23.0,55,30.52,10.0,North,6.9,-,N/A,,Overcast,360,2012-11-14 03:54:00
11:54 PM,37.0,21.0,52,30.52,10.0,NNW,4.6,-,N/A,,Overcast,340,2012-11-14 04:54:00